[TLELIST] Archives

 

[TLELIST] Current TLEs

August 6th 2023 PDT

HST 1 20580U 90037B 23218.24050132 .00004989 00000-0 25990-3 0 9995 2 20580 28.4694 294.8628 0002456 188.5871 207.2555 15.13677600629317 ISS (ZARYA) 1 25544U 98067A 23218.10658399 .00020978 00000-0 37240-3 0 9992 2 25544 51.6406 81.1984 0000881 179.6502 308.7615 15.50165244409536 CXO 1 25867U 99040B 23218.20077911 .00000497 00000-0 00000+0 0 9992 2 25867 37.3593 190.4618 9053041 267.6375 0.7456 0.37807508 24520 ...Continue Reading

[TLELIST] Current TLEs

August 5th 2023 PDT

HST 1 20580U 90037B 23216.67360793 .00004908 00000-0 25566-3 0 9997 2 20580 28.4698 305.2951 0002560 172.3291 308.1897 15.13661646629076 ISS (ZARYA) 1 25544U 98067A 23217.40724723 .00026509 00000-0 46856-3 0 9998 2 25544 51.6409 84.6648 0000622 164.6560 18.5011 15.50141517409426 CXO 1 25867U 99040B 23218.20077911 .00000497 00000-0 00000+0 0 9992 2 25867 37.3593 190.4618 9053041 267.6375 0.7456 0.37807508 24520 ...Continue Reading

[TLELIST] Current TLEs

August 4th 2023 PDT

HST 1 20580U 90037B 23215.47504818 .00005056 00000-0 26374-3 0 9995 2 20580 28.4700 313.2742 0002654 159.8944 256.4853 15.13650587628894 ISS (ZARYA) 1 25544U 98067A 23216.30597424 .00016406 00000-0 29387-3 0 9997 2 25544 51.6415 90.1197 0000976 153.7733 359.7746 15.50094272409258 CXO 1 25867U 99040B 23218.20077911 .00000497 00000-0 00000+0 0 9992 2 25867 37.3593 190.4618 9053041 267.6375 0.7456 0.37807508 24520 ...Continue Reading

[TLELIST] Current TLEs

August 3rd 2023 PDT

HST 1 20580U 90037B 23213.77475720 .00005065 00000-0 26435-3 0 9993 2 20580 28.4704 324.5937 0002767 142.6088 350.2618 15.13634091628639 ISS (ZARYA) 1 25544U 98067A 23215.27256123 .00041610 00000-0 73103-3 0 9990 2 25544 51.6403 95.2411 0000623 157.9606 345.0624 15.50085581409092 CXO 1 25867U 99040B 23215.55605390 .00000636 00000-0 00000+0 0 9990 2 25867 37.3684 190.7827 9049445 267.3760 0.6504 0.37809493 24511 ...Continue Reading

[TLELIST] Current TLEs

August 2nd 2023 PDT

HST 1 20580U 90037B 23213.77475720 .00005065 00000-0 26435-3 0 9993 2 20580 28.4704 324.5937 0002767 142.6088 350.2618 15.13634091628639 ISS (ZARYA) 1 25544U 98067A 23214.47309028 .00019329 00000-0 34539-3 0 9996 2 25544 51.6412 99.2017 0000668 142.0732 216.8047 15.50035846408960 CXO 1 25867U 99040B 23215.55605390 .00000636 00000-0 00000+0 0 9990 2 25867 37.3684 190.7827 9049445 267.3760 0.6504 0.37809493 24511 ...Continue Reading

[TLELIST] Current TLEs

August 1st 2023 PDT

HST 1 20580U 90037B 23212.43973021 .00005241 00000-0 27400-3 0 9991 2 20580 28.4704 333.4810 0002800 128.9788 274.7790 15.13621819628433 ISS (ZARYA) 1 25544U 98067A 23213.51664541 .00019591 00000-0 35040-3 0 9993 2 25544 51.6413 103.9367 0001057 145.0472 273.2904 15.49999930408824 CXO 1 25867U 99040B 23215.55605390 .00000636 00000-0 00000+0 0 9990 2 25867 37.3684 190.7827 9049445 267.3760 0.6504 0.37809493 24511 ...Continue Reading

[TLELIST] Current TLEs

July 31st 2023 PDT

HST 1 20580U 90037B 23210.80611582 .00004773 00000-0 24874-3 0 9992 2 20580 28.4706 344.3559 0002868 112.9656 11.5060 15.13606041628186 ISS (ZARYA) 1 25544U 98067A 23212.44102189 .00018713 00000-0 33562-3 0 9991 2 25544 51.6414 109.2682 0001117 141.0295 31.4418 15.49954764408651 CXO 1 25867U 99040B 23212.91271451 .00000697 00000-0 00000+0 0 9991 2 25867 37.3658 191.0627 9049012 267.1633 0.6802 0.37811689 24501 ...Continue Reading

[TLELIST] Current TLEs

July 30th 2023 PDT

HST 1 20580U 90037B 23210.80611582 .00004773 00000-0 24874-3 0 9992 2 20580 28.4706 344.3559 0002868 112.9656 11.5060 15.13606041628186 ISS (ZARYA) 1 25544U 98067A 23211.27583500 .00017731 00000-0 31899-3 0 9991 2 25544 51.6406 115.0382 0000998 138.5817 8.1342 15.49908252408479 CXO 1 25867U 99040B 23212.91271451 .00000697 00000-0 00000+0 0 9991 2 25867 37.3658 191.0627 9049012 267.1633 0.6802 0.37811689 24501 ...Continue Reading

[TLELIST] Current TLEs

July 30th 2023 PDT

HST 1 20580U 90037B 23210.80611582 .00004773 00000-0 24874-3 0 9992 2 20580 28.4706 344.3559 0002868 112.9656 11.5060 15.13606041628186 ISS (ZARYA) 1 25544U 98067A 23211.27583500 .00017731 00000-0 31899-3 0 9991 2 25544 51.6406 115.0382 0000998 138.5817 8.1342 15.49908252408479 CXO 1 25867U 99040B 23212.91271451 .00000697 00000-0 00000+0 0 9991 2 25867 37.3658 191.0627 9049012 267.1633 0.6802 0.37811689 24501 ...Continue Reading

[TLELIST] Current TLEs

July 29th 2023 PDT

HST 1 20580U 90037B 23209.47367223 .00004343 00000-0 22548-3 0 9992 2 20580 28.4703 353.2255 0002914 100.8962 308.7009 15.13592781627989 ISS (ZARYA) 1 25544U 98067A 23210.24224218 .00015267 00000-0 27624-3 0 9998 2 25544 51.6412 120.1595 0001287 149.2366 346.6340 15.49867419408319 CXO 1 25867U 99040B 23210.26857190 .00000662 00000-0 00000-0 0 9990 2 25867 37.3711 191.4141 9049190 266.8820 0.5961 0.37814450 13330 ...Continue Reading
  • This mailing list is a public mailing list - anyone may join or leave, at any time.
  • This mailing list is announce-only.

International Space Station (ISS) / Hubble Space Telescope (HST) / Chandra X-Ray Observatory Orbital Data via EMAIL

Privacy Policy:

Private list